• Join FlightAware (Why Join?)
  • Login
  • US Flag GB Flag 
07:45 EST


 

Airport Tracker/Info


-or-


 

Live Flight TrackerFlight Track Log ✈ DAL1981 ✈ 27-Apr-2013 ✈ KALB - KATL

Flight Track Log - Related Links

Times and Time Zones

All times are in EDT time to prevent confusion due to time zone crossing. See the DAL1981 flight status page for this flight to view local times or setup timezone preferences in your user account.

Time Position Orientation Groundspeed Altitude Reporting Facility
EDT Latitude Longitude Course Direction KTS MPH feet Rate Location/Type
06:17 42.8131 -73.8242 136° Southeast 224 258 2,800  Level Boston Center
06:18 42.8356 -73.8586 312° West 261 300 4,100 3,660 Climbing Boston Center
06:19 42.5205 -74.1216 200° South  Level Estimated
06:19 42.8617 -73.9386 294° West 280 322 8,000  Level Boston Center
06:20 42.4441 -74.2276 198° South  Level Estimated
06:20 42.8561 -74.0403 266° West 262 302 10,900  Level Boston Center
06:21 42.3676 -74.3334 200° South  Level Estimated
06:21 42.8169 -74.1497 244° Southwest 298 343 12,500  Level Boston Center
06:22 42.2910 -74.4389 180° South  Level Estimated
06:22 42.7064 -74.1467 179° South 300 345 15,400  Level Boston Center
06:23 42.2130 -74.3355 136° Southeast  Level FlightAware Approximate
06:23 42.5944 -74.1211 170° South 353 406 17,500  Level Boston Center
06:24 42.4758 -74.0981 172° South 416 479 19,400 1,980 Climbing Boston Center
06:25 42.3553 -74.0697 170° South 435 501 21,500 2,040 Climbing Boston Center
06:26 42.2306 -74.0439 171° South 446 513 23,500 2,040 Climbing Boston Center
06:27 42.1014 -74.0519 183° South 451 519 25,600 1,740 Climbing Boston Center
06:28 41.9867 -74.0461 178° South 460 529 27,000 1,500 Climbing Boston Center
06:29 41.8647 -73.9789 158° South 455 524 28,600 1,560 Climbing Boston Center
06:30 41.7344 -73.9117 159° South 450 518 30,200 1,380 Climbing Boston Center
06:31 41.5181 -73.9767 193° South 442 509 32,600 1,140 Climbing New York Center
06:32 41.3981 -74.0181 195° South 442 509 33,600 660 Climbing New York Center
06:33 41.2847 -74.0567 194° South 442 509 34,000 120 Climbing New York Center
06:34 41.1669 -74.0950 194° South 437 503 33,900 -60 Descending New York Center
06:35 41.0828 -74.1983 223° Southwest 412 474 33,900  Level New York Center
06:36 41.0064 -74.3125 228° Southwest 407 468 34,000  Climbing New York Center
06:37 40.9406 -74.4217 231° Southwest 420 483 34,000  Level New York Center
06:38 40.8683 -74.5358 230° Southwest 420 483 34,000  Level New York Center
06:39 40.7956 -74.6553 231° Southwest 420 483 34,000  Level New York Center
06:40 40.7231 -74.7689 230° Southwest 414 476 34,000  Level New York Center
06:41 40.6547 -74.8825 232° Southwest 414 476 34,000  Level New York Center
06:42 40.5817 -74.9983 230° Southwest 414 476 34,000  Level New York Center
06:43 40.5111 -75.1086 230° Southwest 414 476 34,000  Level New York Center
06:44 40.4403 -75.2186 230° Southwest 414 476 34,000  Level New York Center
06:45 40.3692 -75.3339 231° Southwest 414 476 34,000  Level New York Center
06:46 40.3003 -75.4436 231° Southwest 414 476 34,000 -60 Level New York Center
06:47 40.2292 -75.5558 230° Southwest 414 476 33,900  Descending New York Center
06:48 40.1681 -75.6739 236° Southwest 404 465 34,000  Climbing New York Center
06:49 40.1086 -75.7944 237° Southwest 398 458 34,000  Level New York Center
06:50 40.0492 -75.9150 237° Southwest 398 458 34,000  Level New York Center
06:51 39.9881 -76.0269 235° Southwest 398 458 34,000  Level New York Center
06:52 39.9164 -76.1381 230° Southwest 399 459 34,000  Level New York Center
06:53 39.8406 -76.2458 228° Southwest 405 466 34,000  Level New York Center
06:54 39.7708 -76.3539 230° Southwest 405 466 34,000  Level New York Center
06:55 39.7064 -76.4628 232° Southwest 405 466 34,000  Level Washington Center
06:56 39.6306 -76.5694 227° Southwest 399 459 34,000  Level Washington Center
06:57 39.5586 -76.6764 229° Southwest 399 459 34,000  Level Washington Center
06:58 39.4869 -76.7856 230° Southwest 399 459 34,000  Level Washington Center
06:59 39.4192 -76.8892 230° Southwest 399 459 34,000  Level Washington Center
07:00 39.3492 -76.9978 230° Southwest 399 459 34,000  Level Washington Center
07:01 39.2792 -77.1039 230° Southwest 399 459 34,000  Level Washington Center
07:02 39.2069 -77.2067 228° Southwest 399 459 34,000  Level Washington Center
07:03 39.1386 -77.3122 230° Southwest 399 459 34,000  Level Washington Center
07:04 39.0664 -77.4175 229° Southwest 399 459 34,000  Level Washington Center
07:05 38.9981 -77.5200 229° Southwest 399 459 34,000  Level Washington Center
07:06 38.9211 -77.6356 229° Southwest 399 459 34,000  Level Washington Center
07:07 38.8589 -77.7297 230° Southwest 399 459 34,000  Level Washington Center
07:08 38.7778 -77.8444 228° Southwest 399 459 34,000  Level Washington Center
07:09 38.7111 -77.9436 229° Southwest 399 459 34,000  Level Washington Center
07:10 38.6425 -78.0422 228° Southwest 387 445 34,000  Level Washington Center
07:11 38.5758 -78.1439 230° Southwest 382 440 34,000  Level Washington Center
07:12 38.5069 -78.2422 228° Southwest 382 440 34,000  Level Washington Center
07:13 38.4378 -78.3431 229° Southwest 382 440 34,000  Level Washington Center
07:14 38.3667 -78.4464 229° Southwest 382 440 34,000  Level Washington Center
07:15 38.2953 -78.5469 228° Southwest 382 440 34,000  Level Washington Center
07:16 38.2303 -78.6447 230° Southwest 376 433 34,000  Level Washington Center
07:17 38.1611 -78.7450 229° Southwest 376 433 34,000  Level Washington Center
07:18 38.0981 -78.8347 228° Southwest 376 433 34,000  Level Washington Center
07:19 38.0267 -78.9344 228° Southwest 376 433 34,000  Level Washington Center
07:20 37.9572 -79.0286 227° Southwest 376 433 34,000  Level Washington Center
07:21 37.8853 -79.1308 228° Southwest 381 438 34,000  Level Washington Center
07:22 37.8072 -79.2375 227° Southwest 381 438 34,000  Level Washington Center
07:23 37.7372 -79.3364 228° Southwest 381 438 34,000  Level Washington Center
07:24 37.6633 -79.4350 227° Southwest 386 444 34,000  Level Washington Center
07:25 37.5892 -79.5361 227° Southwest 386 444 34,000  Level Washington Center
07:26 37.5233 -79.6269 228° Southwest 386 444 34,000  Level Washington Center
07:27 37.4447 -79.7353 228° Southwest 386 444 34,000  Level Washington Center
07:28 37.3700 -79.8383 228° Southwest 392 451 34,000  Level Washington Center
07:29 37.2978 -79.9389 228° Southwest 397 457 34,000  Level Washington Center
07:30 37.2339 -80.0267 228° Southwest 397 457 34,000  Level Washington Center
07:32 37.1114 -80.1894 227° Southwest 379 436 34,000  Level Atlanta Center
07:33 37.0294 -80.2975 226° Southwest 384 442 34,000  Level Atlanta Center
07:34 36.9572 -80.3944 227° Southwest 384 442 34,000  Level Atlanta Center
07:35 36.8850 -80.4939 228° Southwest 384 442 34,000  Level Atlanta Center
07:36 36.8108 -80.5931 227° Southwest 384 442 34,000  Level Atlanta Center
07:37 36.7442 -80.6789 226° Southwest 384 442 34,000  Level Atlanta Center
07:38 36.6719 -80.7750 227° Southwest 384 442 34,000  Level Atlanta Center
07:39 36.5972 -80.8764 227° Southwest 384 442 34,000  Level Atlanta Center
07:40 36.5167 -80.9828 227° Southwest 384 442 34,000  Level Atlanta Center
07:41 36.4397 -81.0814 226° Southwest 390 449 34,000  Level Atlanta Center
07:42 36.3692 -81.1792 228° Southwest 385 443 34,000  Level Atlanta Center
07:43 36.2922 -81.2772 226° Southwest 385 443 34,000  Level Atlanta Center
07:44 36.2192 -81.3750 227° Southwest 385 443 34,000  Level Atlanta Center
07:45 36.1419 -81.4753 226° Southwest 385 443 34,000  Level Atlanta Center
07:46 36.0669 -81.5728 226° Southwest 385 443 34,000  Level Atlanta Center
07:47 35.9936 -81.6675 226° Southwest 385 443 34,000  Level Atlanta Center
07:48 35.9183 -81.7669 227° Southwest 385 443 34,000  Level Atlanta Center
07:49 35.8450 -81.8611 226° Southwest 390 449 34,000  Level Atlanta Center
07:50 35.7694 -81.9581 226° Southwest 385 443 34,000  Level Atlanta Center
07:51 35.6939 -82.0569 227° Southwest 385 443 34,000  Level Atlanta Center
07:52 35.6181 -82.1508 225° Southwest 385 443 34,000  Level Atlanta Center
07:53 35.5444 -82.2444 226° Southwest 385 443 34,000 -240 Level Atlanta Center
07:54 35.4747 -82.3275 224° Southwest 379 436 33,600 -1,260 Descending Atlanta Center
07:55 35.3925 -82.4211 223° Southwest 393 452 31,500 -2,460 Descending Atlanta Center
07:56 35.3083 -82.5142 222° Southwest 405 466 28,700 -2,400 Descending Atlanta Center
07:57 35.2197 -82.6100 221° Southwest 419 482 26,800 -1,680 Descending Atlanta Center
07:58 35.1289 -82.7106 222° Southwest 431 496 25,400 -1,380 Descending Atlanta Center
07:59 35.0422 -82.8058 222° Southwest 431 496 24,100 -720 Descending Atlanta Center
08:00 34.9578 -82.8983 222° Southwest 431 496 24,000 -60 Descending Atlanta Center
08:01 34.8606 -83.0086 223° Southwest 437 503 24,000  Level Atlanta Center
08:02 34.7717 -83.1006 220° Southwest 432 497 24,000 -120 Level Atlanta Center
08:03 34.6867 -83.2000 224° Southwest 432 497 23,800 -360 Descending Atlanta Center
08:04 34.5997 -83.2944 222° Southwest 432 497 23,300 -300 Descending Atlanta Center
08:05 34.5042 -83.3783 216° Southwest 432 497 23,200 -240 Descending Atlanta Center
08:06 34.3981 -83.4522 210° Southwest 446 513 22,900 -480 Descending Atlanta Center
08:07 34.3131 -83.5508 224° Southwest 433 498 22,300 -1,680 Descending Atlanta Center
08:08 34.2381 -83.6469 227° Southwest 409 471 19,600 -2,400 Descending Atlanta Center
08:09 34.1758 -83.7325 229° Southwest 399 459 17,500 -2,400 Descending Atlanta Center
08:10 34.1072 -83.8181 226° Southwest 367 422 14,800 -2,220 Descending Atlanta Center
08:11 34.0333 -83.9000 223° Southwest 376 433 13,600 -1,140 Descending Atlanta TRACON
08:12 33.9667 -83.9667 220° Southwest 360 414 12,800 -840 Descending Atlanta TRACON
08:13 33.9000 -84.0500 226° Southwest 356 410 12,100 -360 Descending Atlanta TRACON
08:14 33.8167 -84.1333 220° Southwest 353 406 12,100  Level Atlanta TRACON
08:15 33.7333 -84.2000 214° Southwest 349 402 12,100 -360 Level Atlanta TRACON
08:16 33.7333 -84.2833 270° West 283 326 11,500 -660 Descending Atlanta TRACON
08:17 33.7333 -84.3667 270° West 235 270 10,900 -780 Descending Atlanta TRACON
08:18 33.7333 -84.4333 270° West 224 258 10,000 -1,140 Descending Atlanta TRACON
08:19 33.7333 -84.5167 270° West 207 238 8,600 -1,560 Descending Atlanta TRACON
08:20 33.7333 -84.6000 270° West 224 258 6,800 -1,260 Descending Atlanta TRACON
08:21 33.7333 -84.6667 270° West 227 261 6,100 -720 Descending Atlanta TRACON
08:22 33.7333 -84.7333 270° West 203 234 5,400 -540 Descending Atlanta TRACON
08:23 33.7000 -84.7500 203° Southwest 182 209 5,100 -180 Descending Atlanta TRACON
08:24 33.6667 -84.6833 121° Southeast 182 209 5,100 -480 Level Atlanta TRACON
08:25 33.6500 -84.6333 112° Southeast 212 244 4,200 -900 Descending Atlanta TRACON